• In India
  • List of Countries
  • For 7 days
  • Water Temperature
  • Satellite Maps
  • Weather Map
  • Weather Widgets
  • user-avatar
    Login

    Hourly Weather Sankt Polten

    Today, 15 October, Monday

    Time Temperature Precipitation Wind Pressure Humidity
    00:00 +13°C° 0 mm 2 mps 738 mmHg 55%
    01:00 +12°C° 0 mm 1 mps 739 mmHg 60%
    02:00 +12°C° 0 mm 2 mps 738 mmHg 58%
    03:00 +12°C° 0 mm 2 mps 738 mmHg 57%
    04:00 +12°C° 0 mm 2 mps 738 mmHg 55%
    05:00 +12°C° 0 mm 2 mps 738 mmHg 56%
    06:00 +12°C° 0 mm 2 mps 738 mmHg 56%
    07:00 +12°C° 0 mm 2 mps 739 mmHg 56%
    08:00 +14°C° 0 mm 2 mps 739 mmHg 52%
    09:00 +16°C° 0 mm 3 mps 739 mmHg 47%
    10:00 +18°C° 0 mm 3 mps 739 mmHg 43%
    11:00 +19°C° 0 mm 3 mps 738 mmHg 43%
    12:00 +20°C° 0 mm 3 mps 738 mmHg 42%
    13:00 +20°C° 0 mm 3 mps 738 mmHg 41%
    14:00 +19°C° 0 mm 3 mps 738 mmHg 45%
    15:00 +19°C° 0 mm 3 mps 738 mmHg 49%
    16:00 +18°C° 0 mm 3 mps 738 mmHg 53%
    17:00 +17°C° 0 mm 2 mps 738 mmHg 56%
    18:00 +16°C° 0 mm 2 mps 738 mmHg 58%
    19:00 +15°C° 0 mm 2 mps 738 mmHg 61%
    20:00 +14°C° 0 mm 2 mps 738 mmHg 63%
    21:00 +13°C° 0 mm 2 mps 738 mmHg 64%
    22:00 +13°C° 0 mm 2 mps 738 mmHg 66%
    23:00 +12°C° 0 mm 2 mps 738 mmHg 68%

    Tomorrow, 16 October, Tuesday

    Time Temperature Precipitation Wind Pressure Humidity
    00:00 +12°C° 0 mm 2 mps 738 mmHg 70%
    01:00 +12°C° 0 mm 1 mps 738 mmHg 72%
    02:00 +11°C° 0 mm 1 mps 738 mmHg 74%
    03:00 +11°C° 0 mm 1 mps 738 mmHg 76%
    04:00 +11°C° 0 mm 1 mps 738 mmHg 77%
    05:00 +11°C° 0 mm 1 mps 738 mmHg 78%
    06:00 +11°C° 0 mm 1 mps 738 mmHg 78%
    07:00 +11°C° 0 mm 1 mps 739 mmHg 79%
    08:00 +14°C° 0 mm 1 mps 739 mmHg 71%
    09:00 +16°C° 0 mm 1 mps 739 mmHg 63%
    10:00 +20°C° 0 mm 1 mps 739 mmHg 55%
    11:00 +21°C° 0 mm 1 mps 739 mmHg 52%
    12:00 +22°C° 0 mm 1 mps 739 mmHg 50%
    13:00 +23°C° 0 mm 2 mps 739 mmHg 48%
    14:00 +21°C° 0 mm 2 mps 739 mmHg 52%
    15:00 +21°C° 0 mm 1 mps 738 mmHg 57%
    16:00 +20°C° 0 mm 1 mps 738 mmHg 61%
    17:00 +19°C° 0 mm 1 mps 738 mmHg 68%
    18:00 +16°C° 0 mm 1 mps 739 mmHg 74%
    19:00 +14°C° 0 mm 1 mps 739 mmHg 80%
    20:00 +13°C° 0 mm 1 mps 739 mmHg 82%
    21:00 +13°C° 0 mm 1 mps 739 mmHg 83%
    22:00 +13°C° 0 mm 1 mps 739 mmHg 85%
    23:00 +12°C° 0 mm 1 mps 739 mmHg 85%

    Day after tomorrow, 17 October, Wednesday

    Time Temperature Precipitation Wind Pressure Humidity
    00:00 +12°C° 0 mm 1 mps 739 mmHg 86%
    01:00 +12°C° 0 mm 1 mps 739 mmHg 87%
    02:00 +12°C° 0 mm 1 mps 739 mmHg 87%
    03:00 +10°C° 0 mm 0 mps 739 mmHg 88%
    04:00 +10°C° 0 mm 0 mps 739 mmHg 88%
    05:00 +10°C° 0 mm 0 mps 739 mmHg 88%
    06:00 +10°C° 0 mm 0 mps 739 mmHg 87%
    07:00 +10°C° 0 mm 0 mps 739 mmHg 87%
    08:00 +13°C° 0 mm 0 mps 739 mmHg 79%
    09:00 +16°C° 0 mm 1 mps 739 mmHg 71%
    10:00 +19°C° 0 mm 1 mps 739 mmHg 63%
    11:00 +20°C° 0 mm 1 mps 739 mmHg 60%
    12:00 +21°C° 0 mm 1 mps 738 mmHg 58%
    13:00 +21°C° 0 mm 2 mps 738 mmHg 56%
    14:00 +20°C° 0.1 mm 2 mps 738 mmHg 61%
    15:00 +19°C° 0.1 mm 2 mps 737 mmHg 67%
    16:00 +19°C° 0.1 mm 2 mps 737 mmHg 72%
    17:00 +17°C° 0 mm 2 mps 737 mmHg 78%
    18:00 +16°C° 0 mm 1 mps 737 mmHg 83%
    19:00 +14°C° 0 mm 1 mps 737 mmHg 89%
    20:00 +14°C° 0 mm 1 mps 738 mmHg 89%
    21:00 +14°C° 0 mm 1 mps 738 mmHg 88%
    22:00 +14°C° 0 mm 1 mps 738 mmHg 88%
    23:00 +14°C° 0.1 mm 1 mps 738 mmHg 88%

    18 October, Thursday

    Time Temperature Precipitation Wind Pressure Humidity
    00:00 +13°C° 0.1 mm 1 mps 738 mmHg 88%
    01:00 +13°C° 0.1 mm 1 mps 738 mmHg 89%
    02:00 +13°C° 0 mm 1 mps 737 mmHg 89%
    03:00 +13°C° 0 mm 1 mps 737 mmHg 89%
    04:00 +12°C° 0 mm 1 mps 737 mmHg 90%
    05:00 +12°C° 0 mm 1 mps 737 mmHg 89%
    06:00 +12°C° 0 mm 1 mps 737 mmHg 89%
    07:00 +11°C° 0 mm 0 mps 737 mmHg 89%
    08:00 +14°C° 0 mm 1 mps 737 mmHg 81%
    09:00 +16°C° 0 mm 1 mps 738 mmHg 74%
    10:00 +19°C° 0 mm 1 mps 738 mmHg 66%
    11:00 +20°C° 0 mm 1 mps 737 mmHg 64%
    12:00 +20°C° 0 mm 1 mps 737 mmHg 61%
    13:00 +21°C° 0 mm 1 mps 737 mmHg 59%
    14:00 +20°C° 0 mm 1 mps 737 mmHg 62%
    15:00 +20°C° 0 mm 1 mps 737 mmHg 64%
    16:00 +19°C° 0 mm 1 mps 737 mmHg 67%
    17:00 +18°C° 0 mm 1 mps 737 mmHg 72%
    18:00 +15°C° 0 mm 1 mps 737 mmHg 77%
    19:00 +13°C° 0 mm 1 mps 738 mmHg 82%
    20:00 +13°C° 0 mm 1 mps 738 mmHg 83%
    21:00 +13°C° 0 mm 1 mps 738 mmHg 83%
    22:00 +12°C° 0 mm 1 mps 738 mmHg 84%
    23:00 +12°C° 0 mm 1 mps 738 mmHg 84%

    19 October, Friday

    Time Temperature Precipitation Wind Pressure Humidity
    00:00 +12°C° 0 mm 1 mps 738 mmHg 85%
    01:00 +11°C° 0 mm 1 mps 738 mmHg 85%
    02:00 +11°C° 0 mm 1 mps 738 mmHg 86%
    03:00 +11°C° 0 mm 1 mps 738 mmHg 87%
    04:00 +11°C° 0 mm 1 mps 738 mmHg 87%
    05:00 +11°C° 0 mm 1 mps 739 mmHg 87%
    06:00 +11°C° 0 mm 1 mps 739 mmHg 87%
    07:00 +11°C° 0 mm 1 mps 739 mmHg 87%
    08:00 +13°C° 0 mm 1 mps 739 mmHg 79%
    09:00 +15°C° 0 mm 1 mps 739 mmHg 70%
    10:00 +18°C° 0 mm 1 mps 739 mmHg 61%
    11:00 +19°C° 0 mm 1 mps 739 mmHg 59%
    12:00 +20°C° 0 mm 1 mps 739 mmHg 57%
    13:00 +19°C° 0 mm 2 mps 739 mmHg 54%
    14:00 +20°C° 0 mm 1 mps 739 mmHg 58%
    15:00 +19°C° 0 mm 1 mps 739 mmHg 62%
    16:00 +19°C° 0 mm 1 mps 739 mmHg 66%
    17:00 +16°C° 0 mm 1 mps 739 mmHg 73%
    18:00 +14°C° 0 mm 1 mps 740 mmHg 80%
    19:00 +13°C° 0 mm 1 mps 740 mmHg 86%
    20:00 +12°C° 0 mm 1 mps 740 mmHg 88%
    21:00 +12°C° 0 mm 1 mps 740 mmHg 90%
    22:00 +11°C° 0 mm 1 mps 741 mmHg 91%
    23:00 +11°C° 0 mm 1 mps 741 mmHg 92%

    20 October, Saturday

    Time Temperature Precipitation Wind Pressure Humidity
    00:00 +11°C° 0 mm 1 mps 741 mmHg 93%
    01:00 +11°C° 0 mm 1 mps 741 mmHg 94%
    02:00 +10°C° 0 mm 1 mps 741 mmHg 94%
    03:00 +10°C° 0 mm 1 mps 741 mmHg 95%
    04:00 +10°C° 0 mm 1 mps 741 mmHg 95%
    05:00 +10°C° 0 mm 1 mps 741 mmHg 95%
    06:00 +10°C° 0 mm 1 mps 742 mmHg 95%
    07:00 +10°C° 0 mm 1 mps 742 mmHg 94%
    08:00 +12°C° 0 mm 1 mps 742 mmHg 88%
    09:00 +14°C° 0 mm 1 mps 742 mmHg 81%
    10:00 +15°C° 0 mm 1 mps 742 mmHg 75%
    11:00 +16°C° 0 mm 2 mps 742 mmHg 70%
    12:00 +16°C° 0 mm 2 mps 742 mmHg 66%
    13:00 +17°C° 0 mm 2 mps 742 mmHg 62%
    14:00 +17°C° 0 mm 2 mps 742 mmHg 64%
    15:00 +16°C° 0 mm 2 mps 742 mmHg 66%
    16:00 +16°C° 0 mm 1 mps 742 mmHg 68%
    17:00 +14°C° 0 mm 1 mps 742 mmHg 74%
    18:00 +12°C° 0 mm 1 mps 743 mmHg 80%
    19:00 +11°C° 0 mm 1 mps 743 mmHg 86%
    20:00 +10°C° 0 mm 1 mps 744 mmHg 87%
    21:00 +10°C° 0 mm 1 mps 744 mmHg 87%
    22:00 +10°C° 0 mm 1 mps 744 mmHg 88%
    23:00 +9°C° 0 mm 1 mps 744 mmHg 89%
    Show more